Regional Weather Roundup
Issued by NWS

Home | Current Version | Previous Version | Text Only | Print | Product List | Glossary On
Versions: 1 2 3 4 5 6 7 8 9 10 11 12 13 14 15 16 17 18 19 20 21 22 23 24 25 26 27 28 29 30 31 32 33 34 35 36 37 38 39 40 41 42 43 44 45 46 47 48 49 50
000
ASCA42 TJSJ 260311
RWRPR
PUERTO RICO/U.S. VIRGIN ISLANDS HOURLY WEATHER ROUNDUP
NATIONAL WEATHER SERVICE SAN JUAN PR
1100 PM AST FRI JUL 25 2014

PRZ001-004-260400-
PUERTO RICO

CITY           SKY/WX    TMP DP  RH WIND       PRES   REMARKS
SAN JUAN LMM   PTCLDY    82  77  83 E15       30.08R HX  91
PONCE          PTCLDY    82  72  69 E7        30.01R
AGUADILLA      PTCLDY    81  75  83 E14       30.07S
CEIBA          CLOUDY    82  75  78 NE9G18    30.10R
$$

PRZ006-007-260400-
U.S. VIRGIN ISLANDS

CITY           SKY/WX    TMP DP  RH WIND       PRES   REMARKS
$$

HOURLY WEATHER ROUNDUP FOR THE NEWS MEDIA

CITY           SKY/WX    TMP DP  RH WIND       PRES   REMARKS
MIAMI          PTCLDY    84  76  76 SE3       30.10R HX  93
ORLANDO        CLOUDY    79  74  84 S3        30.08R
NEW YORK       PTCLDY    72  63  73 SW7       30.02F
NEWARK         PTCLDY    73  61  65 S10       30.01F
CHICAGO        CLOUDY    71  57  61 SW7       29.93S
HARTFORD       CLEAR     66  60  81 SW6       29.99S
BOSTON         CLEAR     72  59  63 SW9       29.97R
DALLAS         CLEAR     90  69  50 SE15      29.94R HX  94
PHILADELPHIA   PTCLDY    73  58  59 S6        30.01F



USA.gov is the U.S. government's official web portal to all federal, state and local government web resources and services.